Dyersburg, TN

11:07 AM CST on November 12, 2019 (GMT -0600)
Dyersburg Municipal

Weather History for KDYR - October, 2019

Change the Weather History Date:

Sunday, October 20, 2019

  Actual Average Record
Temperature  
Mean Temperature 67 °F -  
Max Temperature 77 °F 68 °F 84 °F (2005)
Min Temperature 57 °F 47 °F 35 °F (1999)
Cooling Degree Days 2    
Growing Degree Days 17 (Base 50)    
Moisture  
Dew Point 59 °F    
Average Humidity 82    
Maximum Humidity 100    
Minimum Humidity 48    
Precipitation  
Precipitation 0.00 in - - ()
Sea Level Pressure  
Sea Level Pressure 29.88 in    
Wind  
Wind Speed 4 mph ()    
Max Wind Speed 9 mph    
Max Gust Speed -    
Visibility 8.0 miles    
Events      
Averages and records for this station are not official NWS values.
T = Trace of Precipitation, MM = Missing Value Source: Averaged Metar Reports

Daily Weather History Graph

Daily Weather History Graph

Search for Another Location

Airport or City:

Astronomy

Oct. 20, 2019 Rise Set
Actual Time 7:08 AM CDT 6:15 PM CDT
Civil Twilight 6:42 AM CDT 6:41 PM CDT
Nautical Twilight 6:12 AM CDT 7:11 PM CDT
Astronomical Twilight 5:43 AM CDT 7:41 PM CDT
Moon 11:31 PM CDT (10/20) 1:29 PM CDT (10/20)
Length of Visible Light 11h 58m
Length of Day
11h 06m
Waning Gibbous, 59% of the Moon is Illuminated
Oct 20
Waning Gibbous
Oct 21
Last Quarter
Oct 27
New
Nov 4
First Quarter
Nov 12
Full

Hourly Weather History & Observations

Time (CDT) Temp. Dew Point Humidity Pressure Visibility Wind Dir Wind Speed Gust Speed Precip Events Conditions
12:37 AM 60.8 °F 60.8 °F 100% 29.82 in 3.0 mi South 4.6 mph - N/A   Overcast
12:56 AM 60.1 °F 60.1 °F 100% 29.83 in 3.0 mi South 4.6 mph - N/A   Overcast
1:56 AM 60.1 °F 59.0 °F 96% 29.84 in 4.0 mi South 4.6 mph - N/A   Overcast
2:41 AM 59.0 °F 59.0 °F 100% 29.83 in 1.8 mi South 3.5 mph - N/A   Overcast
3:21 AM 59.0 °F 57.2 °F 94% 29.84 in 3.0 mi WSW 3.5 mph - N/A   Overcast
3:37 AM 57.2 °F 57.2 °F 100% 29.84 in 1.8 mi Calm Calm - N/A   Overcast
3:42 AM 59.0 °F 57.2 °F 94% 29.84 in 3.0 mi Calm Calm - N/A   Overcast
3:56 AM 59.0 °F 59.0 °F 100% 29.85 in 4.0 mi Calm Calm - N/A   Overcast
4:56 AM 57.9 °F 57.9 °F 100% 29.86 in 7.0 mi East 3.5 mph - N/A   Overcast
5:56 AM 57.9 °F 57.9 °F 100% 29.89 in 7.0 mi Calm Calm - N/A   Overcast
6:56 AM 57.9 °F 57.9 °F 100% 29.91 in 8.0 mi Calm Calm - N/A   Overcast
7:40 AM 59.0 °F 57.2 °F 94% 29.90 in 9.0 mi Calm Calm - N/A   Overcast
7:56 AM 59.0 °F 57.9 °F 96% 29.92 in 10.0 mi Calm Calm - N/A   Overcast
8:56 AM 60.1 °F 59.0 °F 96% 29.93 in 10.0 mi ESE 4.6 mph - N/A   Overcast
9:14 AM 60.8 °F 59.0 °F 94% 29.92 in 10.0 mi East 4.6 mph - N/A   Overcast
9:56 AM 64.0 °F 59.0 °F 84% 29.94 in 10.0 mi Variable 5.8 mph - N/A   Overcast
10:12 AM 64.4 °F 60.8 °F 88% 29.92 in 10.0 mi SE 6.9 mph - N/A   Mostly Cloudy
10:28 AM 66.2 °F 59.0 °F 78% 29.92 in 10.0 mi ESE 8.1 mph - N/A   Scattered Clouds
10:42 AM 66.2 °F 59.0 °F 78% 29.92 in 10.0 mi Variable 6.9 mph - N/A   Partly Cloudy
10:56 AM 66.9 °F 59.0 °F 76% 29.94 in 10.0 mi Variable 3.5 mph - N/A   Clear
11:56 AM 72.0 °F 57.0 °F 59% 29.94 in 10.0 mi Calm Calm - N/A   Mostly Cloudy
12:56 PM 73.0 °F 55.9 °F 55% 29.92 in 10.0 mi Variable 4.6 mph - N/A   Overcast
1:56 PM 75.0 °F 57.0 °F 53% 29.89 in 10.0 mi Variable 4.6 mph - N/A   Overcast
2:56 PM 75.9 °F 55.9 °F 50% 29.86 in 10.0 mi East 8.1 mph - N/A   Clear
3:56 PM 77.0 °F 55.9 °F 48% 29.86 in 10.0 mi SE 6.9 mph - N/A   Clear
4:56 PM 75.9 °F 57.0 °F 52% 29.86 in 10.0 mi ESE 5.8 mph - N/A   Clear
5:56 PM 73.0 °F 57.9 °F 59% 29.85 in 10.0 mi East 4.6 mph - N/A   Clear
6:56 PM 70.0 °F 60.1 °F 71% 29.85 in 10.0 mi East 5.8 mph - N/A   Mostly Cloudy
7:56 PM 69.1 °F 60.1 °F 73% 29.85 in 10.0 mi SE 5.8 mph - N/A   Partly Cloudy
8:56 PM 69.1 °F 61.0 °F 75% 29.86 in 10.0 mi SE 8.1 mph - N/A   Clear
9:56 PM 66.0 °F 61.0 °F 84% 29.86 in 10.0 mi SE 8.1 mph - N/A   Clear
10:56 PM 66.0 °F 60.1 °F 81% 29.86 in 10.0 mi SE 6.9 mph - N/A   Clear
11:56 PM 64.9 °F 60.1 °F 84% 29.81 in 10.0 mi SSE 9.2 mph - N/A   Scattered Clouds